Regional Weather Roundup
Issued by NWS

Home | Current Version | Previous Version | Text Only | Print | Product List | Glossary Off
Versions: 1 2 3 4 5 6 7 8 9 10 11 12 13 14 15 16 17 18 19 20 21 22 23 24 25 26 27 28 29 30 31 32 33 34 35 36 37 38 39 40 41 42 43 44 45 46 47 48 49 50

000
ASUS43 KOAX 061502
RWRNE

WEATHER ROUNDUP FOR NEBRASKA
NATIONAL WEATHER SERVICE OMAHA NE
1000 AM CDT WED MAY 06 2015

NOTES: SATELLITE DATA IS BEING USED TO AUGMENT CLOUD COVER ABOVE
       12000 FEET.
       "FAIR" INDICATES FEW OR NO CLOUDS BELOW 12,000 FEET WITH NO
       SIGNIFICANT WEATHER AND/OR OBSTRUCTIONS TO VISIBILITY.

  * THESE STATIONS DO NOT REPORT WEATHER SUCH AS RAIN...SNOW OR FOG.

NEZ001>004-019>022-054>056-061600-
NEBRASKA PANHANDLE

CITY           SKY/WX    TMP DP  RH WIND       PRES   REMARKS
SCOTTSBLUFF    CLOUDY    55  53  93 E12       29.68S
ALLIANCE       CLOUDY    53  51  93 SE10      29.68S
CHADRON        CLOUDY    57  52  83 SE10      29.68S
KIMBALL        CLOUDY    51  51  99 NE5       29.67R FOG
SIDNEY         CLOUDY    52  52 100 SE10      29.66S FOG
$$

NEZ057>060-069>072-079>082-061600-
SOUTHWEST NEBRASKA

CITY           SKY/WX    TMP DP  RH WIND       PRES   REMARKS
NORTH PLATTE   CLOUDY    60  56  86 S12       29.69F
IMPERIAL       CLOUDY    56  51  84 S13       29.68F
MCCOOK         CLOUDY    61  56  83 SE14      29.69F
$$

NEZ005>010-023>029-035>040-094-061600-
NORTH CENTRAL NEBRASKA

CITY           SKY/WX    TMP DP  RH WIND       PRES   REMARKS
VALENTINE      CLOUDY    60  58  92 SE13      29.72F
AINSWORTH      CLOUDY    62  58  88 SE15G21   29.72F
BROKEN BOW     LGT RAIN  61  58  90 SE13G24   29.71F
ORD            LGT RAIN  61  57  87 SE9       29.72F
$$

NEZ041-046>049-061>064-073>077-083>087-061600-
SOUTH CENTRAL NEBRASKA

CITY           SKY/WX    TMP DP  RH WIND       PRES   REMARKS
GRAND ISLAND   LGT RAIN  61  59  93 S14       29.76S FOG
AURORA         DRIZZLE   61  61  99 S16       29.77S
HASTINGS       LGT RAIN  60  58  92 S13       29.76R
KEARNEY *      CLOUDY    61  57  88 S15       29.74F
$$

NEZ011>018-030>034-042>045-061600-
NORTHEAST NEBRASKA

CITY           SKY/WX    TMP DP  RH WIND       PRES   REMARKS
NORFOLK        LGT RAIN  62  60  93 SE17G26   29.76F FOG
COLUMBUS *     CLOUDY    61  55  82 S13G25    29.80R
TEKAMAH        CLOUDY    67  60  78 SE23G35   29.83F
$$

NEZ050>053-065>068-078-088>093-061600-
SOUTHEAST NEBRASKA

CITY           SKY/WX    TMP DP  RH WIND       PRES   REMARKS
LINCOLN        LGT RAIN  65  60  84 S18       29.82S
OMAHA EPPLEY   CLOUDY    66  59  78 S22G30    29.84S
FALLS CITY     PTSUNNY   67  59  75 S20G28    29.88R
NEBRASKA CITY  CLOUDY    65  60  84 S17G23    29.87R
PLATTSMOUTH    CLOUDY    64  59  81 S15G23    29.86R
$$

NEZ044-045-051>053-067-061600-
OMAHA AREA

CITY           SKY/WX    TMP DP  RH WIND       PRES   REMARKS
OMAHA EPPLEY   CLOUDY    66  59  78 S22G30    29.84S
PLATTSMOUTH    CLOUDY    64  59  81 S15G23    29.86R
$$


USA.gov is the U.S. government's official web portal to all federal, state and local government web resources and services.